QPF
0.00 0.00 0.00 0.00 0.00 0.00 0.00 0.00 0.00 0.00 0.00 0.01 0.01 0.00 0.00 0.00 0.01 0.01 0.01 0.01 0.02 0.08 0.11 0.06 0.02 0.03 0.03 0.03 0.04 0.05 0.05 0.07 0.08 0.09 0.09 0.07 0.06 0.06 0.06 0.06 0.07 0.07 0.07 0.09
0.00 0.00 0.00 0.00 0.00 0.00 0.00 0.00 0.00 0.00 0.00 0.00 0.01 0.00 0.00 0.00 0.01 0.01 0.01 0.01 0.01 0.03 0.07 0.06 0.02 0.02 0.02 0.03 0.03 0.04 0.04 0.05 0.06 0.09 0.12 0.12 0.10 0.09 0.09 0.11 0.12 0.11 0.10 0.12
0.00 0.00 0.00 0.00 0.00 0.00 0.00 0.00 0.00 0.00 0.00 0.00 0.01 0.00 0.00 0.00 0.00 0.01 0.01 0.02 0.01 0.01 0.02 0.03 0.02 0.02 0.02 0.03 0.03 0.04 0.04 0.06 0.09 0.13 0.14 0.13 0.10 0.09 0.08 0.08 0.09 0.11 0.11 0.10
0.00 0.00 0.00 0.00 0.00 0.00 0.00 0.00 0.00 0.00 0.01 0.01 0.01 0.01 0.01 0.01 0.01 0.01 0.01 0.01 0.01 0.01 0.01 0.01 0.01 0.01 0.02 0.02 0.03 0.03 0.03 0.04 0.07 0.09 0.13 0.13 0.10 0.09 0.07 0.07 0.07 0.08 0.09 0.09
0.00 0.00 0.00 0.00 0.00 0.00 0.00 0.00 0.00 0.00 0.01 0.00 0.00 0.00 0.00 0.01 0.01 0.02 0.01 0.00 0.01 0.01 0.01 0.01 0.01 0.01 0.02 0.02 0.02 0.03 0.04 0.03 0.04 0.06 0.10 0.12 0.11 0.09 0.07 0.07 0.07 0.06 0.06 0.05
0.00 0.00 0.00 0.00 0.00 0.00 0.00 0.00 0.01 0.00 0.00 0.00 0.00 0.00 0.00 0.00 0.03 0.04 0.01 0.00 0.01 0.01 0.01 0.01 0.01 0.01 0.01 0.01 0.01 0.03 0.03 0.03 0.04 0.06 0.07 0.08 0.08 0.06 0.06 0.06 0.06 0.05 0.05 0.04
0.00 0.00 0.00 0.00 0.00 0.00 0.00 0.01 0.01 0.01 0.01 0.01 0.00 0.01 0.01 0.01 0.01 0.01 0.00 0.00 0.00 0.01 0.01 0.01 0.01 0.02 0.02 0.01 0.01 0.02 0.02 0.03 0.03 0.03 0.03 0.04 0.07 0.09 0.06 0.06 0.06 0.05 0.05 0.07
0.00 0.00 0.00 0.00 0.00 0.00 0.00 0.01 0.01 0.01 0.01 0.01 0.00 0.01 0.01 0.01 0.01 0.01 0.01 0.00 0.00 0.01 0.00 0.01 0.01 0.02 0.02 0.02 0.02 0.02 0.02 0.02 0.02 0.02 0.03 0.04 0.05 0.08 0.09 0.08 0.06 0.06 0.07 0.08
0.00 0.00 0.00 0.00 0.00 0.00 0.01 0.01 0.00 0.01 0.01 0.01 0.00 0.00 0.01 0.00 0.01 0.01 0.00 0.00 0.00 0.00 0.00 0.01 0.02 0.03 0.03 0.03 0.03 0.03 0.02 0.02 0.02 0.01 0.02 0.02 0.03 0.04 0.05 0.07 0.08 0.09 0.09 0.08
0.00 0.00 0.01 0.00 0.00 0.00 0.00 0.00 0.01 0.01 0.02 0.02 0.01 0.01 0.01 0.01 0.01 0.01 0.00 0.00 0.00 0.01 0.01 0.01 0.02 0.02 0.02 0.02 0.02 0.02 0.02 0.02 0.02 0.02 0.02 0.01 0.02 0.02 0.03 0.04 0.04 0.05 0.06 0.07
0.00 0.01 0.01 0.01 0.01 0.00 0.01 0.01 0.01 0.02 0.02 0.03 0.02 0.02 0.02 0.02 0.02 0.02 0.02 0.01 0.01 0.01 0.02 0.02 0.03 0.02 0.01 0.02 0.02 0.02 0.02 0.02 0.02 0.02 0.02 0.02 0.01 0.01 0.02 0.02 0.02 0.03 0.04 0.05
0.00 0.01 0.01 0.01 0.00 0.00 0.01 0.02 0.02 0.03 0.03 0.03 0.03 0.02 0.02 0.01 0.02 0.03 0.02 0.02 0.01 0.01 0.03 0.03 0.03 0.03 0.02 0.02 0.02 0.02 0.02 0.02 0.02 0.02 0.02 0.02 0.01 0.01 0.02 0.02 0.02 0.03 0.03 0.04
0.01 0.01 0.01 0.01 0.01 0.01 0.01 0.02 0.02 0.02 0.03 0.03 0.03 0.02 0.01 0.01 0.01 0.02 0.01 0.01 0.01 0.02 0.05 0.05 0.05 0.04 0.03 0.02 0.02 0.01 0.01 0.02 0.02 0.02 0.02 0.02 0.01 0.01 0.01 0.01 0.02 0.02 0.02 0.03
0.01 0.01 0.01 0.02 0.02 0.02 0.01 0.01 0.01 0.02 0.04 0.03 0.02 0.02 0.02 0.02 0.01 0.01 0.01 0.01 0.01 0.02 0.05 0.06 0.05 0.04 0.03 0.02 0.02 0.02 0.02 0.02 0.02 0.02 0.02 0.02 0.02 0.02 0.03 0.02 0.03 0.03 0.03 0.04
0.01 0.01 0.01 0.01 0.01 0.01 0.01 0.01 0.01 0.01 0.02 0.03 0.02 0.02 0.01 0.01 0.01 0.02 0.01 0.01 0.01 0.03 0.06 0.07 0.06 0.04 0.03 0.03 0.01 0.01 0.01 0.02 0.02 0.02 0.02 0.02 0.02 0.02 0.03 0.03 0.03 0.03 0.03 0.02
0.00 0.01 0.00 0.00 0.00 0.01 0.01 0.01 0.01 0.02 0.02 0.01 0.01 0.01 0.01 0.01 0.01 0.01 0.01 0.02 0.03 0.05 0.06 0.07 0.05 0.03 0.02 0.01 0.01 0.01 0.01 0.01 0.01 0.01 0.02 0.02 0.02 0.02 0.02 0.03 0.03 0.03 0.03 0.03
0.00 0.00 0.01 0.01 0.01 0.01 0.02 0.01 0.02 0.03 0.01 0.01 0.01 0.01 0.01 0.01 0.01 0.01 0.01 0.03 0.04 0.05 0.05 0.06 0.05 0.03 0.02 0.01 0.01 0.00 0.00 0.00 0.00 0.01 0.01 0.02 0.02 0.03 0.03 0.03 0.03 0.03 0.03 0.03
0.00 0.01 0.01 0.01 0.01 0.02 0.02 0.01 0.01 0.02 0.02 0.01 0.01 0.01 0.01 0.02 0.01 0.01 0.01 0.02 0.03 0.04 0.05 0.05 0.04 0.03 0.02 0.01 0.00 0.00 0.00 0.00 0.00 0.00 0.01 0.01 0.02 0.03 0.03 0.03 0.03 0.03 0.03 0.03
0.00 0.01 0.03 0.03 0.02 0.02 0.02 0.02 0.02 0.03 0.03 0.01 0.01 0.01 0.01 0.02 0.01 0.01 0.01 0.01 0.02 0.03 0.04 0.04 0.03 0.02 0.01 0.01 0.00 0.00 0.00 0.00 0.00 0.00 0.01 0.01 0.01 0.02 0.03 0.03 0.03 0.03 0.04 0.04
0.02 0.02 0.05 0.04 0.03 0.04 0.04 0.03 0.02 0.03 0.04 0.03 0.02 0.01 0.01 0.01 0.03 0.02 0.01 0.01 0.01 0.02 0.03 0.03 0.02 0.01 0.01 0.01 0.01 0.01 0.01 0.01 0.01 0.01 0.00 0.01 0.01 0.01 0.02 0.02 0.03 0.03 0.03 0.03
0.03 0.03 0.03 0.03 0.03 0.05 0.05 0.03 0.03 0.05 0.05 0.03 0.03 0.02 0.01 0.02 0.02 0.01 0.00 0.00 0.01 0.01 0.01 0.01 0.01 0.01 0.01 0.01 0.01 0.01 0.01 0.01 0.01 0.00 0.00 0.00 0.00 0.01 0.01 0.02 0.03 0.03 0.02 0.02
0.04 0.04 0.05 0.05 0.04 0.05 0.04 0.04 0.07 0.07 0.04 0.03 0.04 0.03 0.02 0.02 0.01 0.01 0.01 0.01 0.01 0.02 0.01 0.01 0.01 0.01 0.01 0.01 0.01 0.01 0.01 0.01 0.01 0.00 0.00 0.00 0.00 0.01 0.01 0.02 0.02 0.02 0.02 0.02
0.03 0.05 0.06 0.06 0.06 0.05 0.04 0.06 0.08 0.06 0.03 0.04 0.05 0.03 0.02 0.02 0.01 0.01 0.01 0.01 0.01 0.01 0.01 0.01 0.01 0.01 0.01 0.02 0.01 0.02 0.01 0.01 0.01 0.01 0.01 0.01 0.01 0.01 0.01 0.01 0.01 0.02 0.01 0.01
0.02 0.04 0.04 0.05 0.04 0.04 0.06 0.07 0.06 0.05 0.04 0.04 0.03 0.03 0.03 0.02 0.01 0.01 0.01 0.01 0.01 0.01 0.01 0.01 0.01 0.01 0.02 0.02 0.02 0.02 0.02 0.02 0.02 0.01 0.01 0.01 0.01 0.01 0.01 0.01 0.01 0.01 0.02 0.03
0.04 0.06 0.05 0.05 0.04 0.05 0.06 0.06 0.07 0.08 0.06 0.04 0.02 0.03 0.02 0.02 0.01 0.01 0.01 0.01 0.01 0.02 0.02 0.01 0.01 0.01 0.02 0.02 0.03 0.03 0.02 0.01 0.01 0.01 0.01 0.00 0.01 0.01 0.01 0.01 0.01 0.01 0.02 0.03
0.06 0.07 0.06 0.05 0.03 0.04 0.04 0.05 0.04 0.04 0.04 0.03 0.03 0.03 0.03 0.02 0.01 0.01 0.01 0.02 0.02 0.02 0.02 0.02 0.02 0.02 0.01 0.01 0.02 0.02 0.01 0.01 0.01 0.01 0.01 0.01 0.01 0.01 0.01 0.01 0.01 0.02 0.02 0.02
MSLP
1010.31 1010.31 1010.17 1009.93 1009.65 1009.37 1009.14 1008.94 1008.75 1008.55 1008.29 1007.94 1007.50 1007.00 1006.50 1006.06 1005.77 1005.66 1005.77 1006.09 1006.57 1007.15 1007.76 1008.33 1008.83 1009.23 1009.54 1009.80 1010.04 1010.29 1010.58 1010.91 1011.28 1011.66 1012.04 1012.40 1012.74 1013.04 1013.33 1013.61 1013.89 1014.16 1014.40 1014.62
1010.07 1009.95 1009.70 1009.39 1009.08 1008.81 1008.61 1008.49 1008.40 1008.30 1008.12 1007.83 1007.43 1006.94 1006.42 1005.97 1005.66 1005.56 1005.70 1006.07 1006.62 1007.29 1007.99 1008.64 1009.18 1009.60 1009.90 1010.12 1010.31 1010.51 1010.74 1011.04 1011.39 1011.77 1012.16 1012.54 1012.90 1013.22 1013.52 1013.81 1014.09 1014.36 1014.63 1014.86
1009.80 1009.55 1009.21 1008.84 1008.50 1008.25 1008.12 1008.09 1008.11 1008.11 1008.02 1007.79 1007.41 1006.93 1006.39 1005.91 1005.58 1005.48 1005.65 1006.07 1006.71 1007.47 1008.27 1009.00 1009.61 1010.06 1010.36 1010.55 1010.69 1010.84 1011.03 1011.29 1011.61 1011.99 1012.40 1012.79 1013.16 1013.50 1013.80 1014.08 1014.35 1014.62 1014.89 1015.14
1009.56 1009.21 1008.78 1008.35 1008.01 1007.80 1007.75 1007.81 1007.93 1008.03 1008.01 1007.82 1007.46 1006.96 1006.39 1005.88 1005.52 1005.42 1005.61 1006.09 1006.80 1007.67 1008.57 1009.39 1010.06 1010.55 1010.87 1011.05 1011.15 1011.25 1011.40 1011.63 1011.94 1012.32 1012.74 1013.15 1013.53 1013.87 1014.16 1014.42 1014.67 1014.92 1015.16 1015.40
1009.46 1009.00 1008.50 1008.05 1007.71 1007.54 1007.55 1007.70 1007.90 1008.07 1008.10 1007.94 1007.57 1007.03 1006.42 1005.86 1005.47 1005.36 1005.57 1006.10 1006.90 1007.86 1008.86 1009.77 1010.52 1011.06 1011.39 1011.56 1011.65 1011.71 1011.83 1012.03 1012.34 1012.72 1013.15 1013.58 1013.97 1014.30 1014.58 1014.81 1015.01 1015.21 1015.42 1015.63
1009.57 1009.04 1008.48 1008.00 1007.67 1007.53 1007.58 1007.78 1008.03 1008.23 1008.27 1008.10 1007.71 1007.13 1006.47 1005.86 1005.44 1005.32 1005.55 1006.13 1007.00 1008.05 1009.14 1010.14 1010.96 1011.55 1011.91 1012.08 1012.14 1012.18 1012.28 1012.47 1012.77 1013.16 1013.60 1014.04 1014.43 1014.76 1015.00 1015.19 1015.33 1015.47 1015.62 1015.78
1009.96 1009.37 1008.77 1008.26 1007.91 1007.77 1007.82 1008.03 1008.28 1008.47 1008.50 1008.29 1007.85 1007.22 1006.51 1005.86 1005.42 1005.30 1005.55 1006.18 1007.12 1008.25 1009.42 1010.51 1011.39 1012.02 1012.40 1012.57 1012.62 1012.64 1012.71 1012.89 1013.19 1013.58 1014.03 1014.48 1014.87 1015.18 1015.39 1015.52 1015.60 1015.66 1015.73 1015.83
1010.66 1010.01 1009.36 1008.80 1008.41 1008.23 1008.24 1008.41 1008.62 1008.76 1008.73 1008.47 1007.97 1007.30 1006.55 1005.87 1005.42 1005.31 1005.60 1006.27 1007.27 1008.47 1009.71 1010.86 1011.79 1012.46 1012.85 1013.02 1013.06 1013.06 1013.12 1013.28 1013.57 1013.96 1014.41 1014.86 1015.25 1015.53 1015.71 1015.78 1015.78 1015.77 1015.76 1015.79
1011.60 1010.90 1010.20 1009.58 1009.11 1008.85 1008.78 1008.86 1008.98 1009.04 1008.93 1008.61 1008.06 1007.35 1006.58 1005.90 1005.46 1005.37 1005.69 1006.41 1007.45 1008.70 1010.00 1011.19 1012.16 1012.85 1013.26 1013.43 1013.46 1013.44 1013.48 1013.62 1013.90 1014.28 1014.73 1015.16 1015.54 1015.80 1015.93 1015.94 1015.88 1015.79 1015.72 1015.68
1012.71 1011.96 1011.18 1010.48 1009.91 1009.54 1009.35 1009.31 1009.32 1009.28 1009.10 1008.71 1008.12 1007.39 1006.61 1005.95 1005.53 1005.47 1005.82 1006.57 1007.65 1008.93 1010.26 1011.48 1012.47 1013.18 1013.60 1013.78 1013.80 1013.78 1013.79 1013.92 1014.17 1014.54 1014.96 1015.38 1015.73 1015.96 1016.06 1016.03 1015.92 1015.77 1015.64 1015.56
1013.84 1013.04 1012.19 1011.39 1010.71 1010.22 1009.91 1009.74 1009.63 1009.49 1009.23 1008.79 1008.18 1007.44 1006.68 1006.04 1005.65 1005.61 1005.98 1006.75 1007.84 1009.13 1010.46 1011.69 1012.70 1013.42 1013.86 1014.05 1014.08 1014.05 1014.06 1014.17 1014.40 1014.74 1015.14 1015.53 1015.85 1016.05 1016.11 1016.05 1015.91 1015.73 1015.56 1015.46
1014.85 1014.00 1013.10 1012.21 1011.44 1010.84 1010.41 1010.13 1009.92 1009.70 1009.38 1008.91 1008.28 1007.56 1006.82 1006.20 1005.83 1005.80 1006.17 1006.92 1007.99 1009.25 1010.57 1011.79 1012.81 1013.55 1014.01 1014.22 1014.28 1014.27 1014.28 1014.38 1014.59 1014.90 1015.27 1015.62 1015.91 1016.09 1016.13 1016.05 1015.89 1015.69 1015.52 1015.41
1015.65 1014.78 1013.84 1012.90 1012.06 1011.38 1010.88 1010.52 1010.24 1009.96 1009.61 1009.12 1008.50 1007.79 1007.07 1006.47 1006.09 1006.04 1006.37 1007.08 1008.09 1009.30 1010.58 1011.78 1012.79 1013.55 1014.04 1014.30 1014.40 1014.42 1014.45 1014.55 1014.75 1015.03 1015.36 1015.68 1015.94 1016.09 1016.12 1016.03 1015.87 1015.68 1015.52 1015.42
1016.22 1015.35 1014.40 1013.46 1012.61 1011.90 1011.36 1010.97 1010.66 1010.36 1009.99 1009.51 1008.89 1008.19 1007.47 1006.86 1006.45 1006.35 1006.61 1007.23 1008.15 1009.28 1010.49 1011.65 1012.66 1013.43 1013.97 1014.28 1014.44 1014.51 1014.57 1014.68 1014.87 1015.13 1015.43 1015.72 1015.94 1016.07 1016.08 1016.00 1015.85 1015.68 1015.54 1015.46
1016.58 1015.75 1014.84 1013.94 1013.13 1012.45 1011.93 1011.55 1011.25 1010.94 1010.58 1010.09 1009.48 1008.77 1008.03 1007.38 1006.92 1006.74 1006.90 1007.40 1008.20 1009.23 1010.35 1011.46 1012.44 1013.24 1013.81 1014.19 1014.41 1014.53 1014.64 1014.77 1014.96 1015.20 1015.47 1015.72 1015.91 1016.02 1016.02 1015.94 1015.80 1015.65 1015.53 1015.47
1016.85 1016.09 1015.26 1014.45 1013.72 1013.11 1012.65 1012.31 1012.03 1011.74 1011.37 1010.88 1010.25 1009.51 1008.74 1008.03 1007.49 1007.21 1007.25 1007.61 1008.28 1009.18 1010.20 1011.24 1012.20 1013.00 1013.61 1014.04 1014.32 1014.51 1014.66 1014.81 1015.00 1015.23 1015.46 1015.68 1015.85 1015.93 1015.93 1015.84 1015.71 1015.57 1015.46 1015.40
1017.15 1016.48 1015.76 1015.07 1014.45 1013.94 1013.55 1013.25 1012.99 1012.70 1012.32 1011.80 1011.14 1010.36 1009.54 1008.76 1008.13 1007.74 1007.65 1007.88 1008.42 1009.19 1010.11 1011.07 1011.98 1012.77 1013.41 1013.88 1014.22 1014.45 1014.64 1014.81 1015.00 1015.21 1015.42 1015.61 1015.74 1015.80 1015.78 1015.69 1015.56 1015.42 1015.30 1015.23
1017.60 1017.04 1016.45 1015.87 1015.36 1014.94 1014.61 1014.34 1014.08 1013.76 1013.34 1012.77 1012.04 1011.21 1010.32 1009.47 1008.76 1008.28 1008.09 1008.21 1008.62 1009.28 1010.10 1010.98 1011.85 1012.62 1013.26 1013.75 1014.11 1014.38 1014.59 1014.78 1014.96 1015.15 1015.34 1015.50 1015.60 1015.64 1015.60 1015.50 1015.36 1015.20 1015.06 1014.96
1018.30 1017.83 1017.34 1016.87 1016.44 1016.08 1015.77 1015.48 1015.17 1014.78 1014.28 1013.62 1012.82 1011.92 1010.97 1010.07 1009.31 1008.78 1008.52 1008.56 1008.89 1009.45 1010.19 1011.00 1011.81 1012.55 1013.17 1013.67 1014.04 1014.32 1014.54 1014.73 1014.91 1015.08 1015.24 1015.37 1015.45 1015.47 1015.41 1015.29 1015.12 1014.93 1014.76 1014.62
1019.23 1018.84 1018.42 1018.01 1017.62 1017.25 1016.90 1016.54 1016.13 1015.62 1015.00 1014.23 1013.34 1012.37 1011.39 1010.47 1009.70 1009.15 1008.87 1008.89 1009.17 1009.69 1010.36 1011.12 1011.87 1012.57 1013.17 1013.64 1014.01 1014.29 1014.51 1014.69 1014.86 1015.01 1015.15 1015.26 1015.32 1015.31 1015.23 1015.08 1014.89 1014.67 1014.46 1014.27
1020.33 1019.97 1019.58 1019.18 1018.76 1018.34 1017.89 1017.39 1016.83 1016.16 1015.38 1014.49 1013.52 1012.50 1011.49 1010.59 1009.85 1009.35 1009.11 1009.14 1009.43 1009.93 1010.58 1011.29 1012.01 1012.66 1013.22 1013.68 1014.03 1014.29 1014.50 1014.67 1014.83 1014.97 1015.10 1015.19 1015.22 1015.19 1015.09 1014.93 1014.71 1014.46 1014.20 1013.97
1021.46 1021.11 1020.70 1020.25 1019.76 1019.21 1018.61 1017.93 1017.18 1016.33 1015.39 1014.37 1013.31 1012.26 1011.27 1010.42 1009.77 1009.35 1009.19 1009.29 1009.63 1010.15 1010.79 1011.48 1012.16 1012.78 1013.31 1013.74 1014.07 1014.32 1014.52 1014.69 1014.83 1014.97 1015.08 1015.15 1015.18 1015.13 1015.01 1014.83 1014.58 1014.30 1014.02 1013.75
1022.50 1022.11 1021.65 1021.11 1020.49 1019.78 1019.00 1018.12 1017.16 1016.12 1015.02 1013.89 1012.77 1011.71 1010.78 1010.01 1009.47 1009.17 1009.13 1009.33 1009.74 1010.30 1010.96 1011.65 1012.31 1012.90 1013.40 1013.80 1014.11 1014.36 1014.55 1014.71 1014.86 1014.99 1015.09 1015.16 1015.17 1015.11 1014.98 1014.77 1014.51 1014.21 1013.90 1013.61
1023.30 1022.85 1022.31 1021.66 1020.90 1020.02 1019.04 1017.97 1016.81 1015.60 1014.37 1013.16 1012.01 1010.98 1010.11 1009.46 1009.05 1008.89 1008.98 1009.29 1009.78 1010.39 1011.07 1011.76 1012.40 1012.97 1013.45 1013.84 1014.14 1014.38 1014.57 1014.74 1014.89 1015.02 1015.12 1015.18 1015.17 1015.10 1014.95 1014.73 1014.46 1014.15 1013.83 1013.52
1023.77 1023.27 1022.64 1021.87 1020.97 1019.94 1018.80 1017.55 1016.24 1014.90 1013.58 1012.32 1011.18 1010.19 1009.42 1008.89 1008.61 1008.59 1008.80 1009.21 1009.77 1010.43 1011.12 1011.81 1012.44 1012.99 1013.45 1013.82 1014.12 1014.36 1014.56 1014.74 1014.89 1015.02 1015.12 1015.16 1015.15 1015.06 1014.89 1014.66 1014.38 1014.06 1013.73 1013.42
1023.89 1023.33 1022.63 1021.77 1020.77 1019.62 1018.35 1016.99 1015.58 1014.16 1012.80 1011.54 1010.43 1009.52 1008.85 1008.43 1008.28 1008.37 1008.67 1009.16 1009.76 1010.44 1011.13 1011.80 1012.41 1012.94 1013.38 1013.74 1014.04 1014.29 1014.50 1014.68 1014.84 1014.96 1015.05 1015.08 1015.05 1014.94 1014.76 1014.51 1014.22 1013.90 1013.57 1013.25
Thickness
5759 5755 5752 5755 5759 5757 5755 5752 5751 5758 5766 5759 5758 5760 5765 5769 5766 5763 5762 5760 5757 5755 5755 5752 5748 5746 5743 5739 5735 5731 5727 5723 5719 5717 5713 5709 5706 5703 5700 5697 5692 5689 5685 5682
5753 5750 5757 5759 5757 5753 5751 5748 5751 5757 5760 5753 5753 5755 5766 5767 5763 5762 5759 5756 5754 5751 5748 5745 5743 5741 5738 5734 5731 5727 5723 5720 5718 5714 5710 5707 5703 5700 5696 5692 5688 5684 5681 5678
5748 5754 5758 5752 5750 5746 5749 5748 5748 5747 5753 5755 5747 5748 5760 5765 5762 5760 5758 5755 5753 5748 5743 5740 5738 5736 5734 5730 5727 5725 5721 5718 5714 5711 5707 5702 5698 5694 5691 5686 5683 5680 5676 5673
5752 5757 5753 5749 5748 5747 5744 5753 5749 5746 5742 5745 5744 5735 5753 5758 5754 5753 5752 5752 5749 5747 5743 5739 5735 5732 5730 5727 5724 5721 5717 5714 5710 5707 5703 5699 5693 5689 5687 5683 5680 5676 5672 5668
5748 5751 5748 5744 5747 5747 5746 5751 5748 5745 5742 5740 5744 5735 5748 5755 5745 5748 5749 5748 5747 5745 5741 5736 5733 5731 5728 5725 5721 5717 5713 5709 5706 5703 5698 5694 5690 5686 5683 5679 5674 5671 5668 5665
5750 5755 5751 5747 5751 5749 5748 5745 5744 5743 5742 5726 5738 5730 5735 5747 5742 5743 5745 5745 5743 5740 5737 5734 5731 5728 5724 5721 5717 5712 5708 5704 5700 5697 5693 5689 5684 5680 5676 5672 5668 5666 5664 5661
5741 5748 5750 5749 5740 5743 5740 5731 5723 5722 5724 5727 5740 5728 5731 5744 5745 5742 5739 5739 5738 5736 5733 5729 5726 5722 5719 5716 5712 5708 5704 5699 5696 5692 5688 5684 5679 5675 5670 5667 5664 5661 5659 5657
5725 5730 5741 5740 5734 5729 5732 5728 5711 5703 5712 5726 5731 5723 5734 5743 5743 5740 5738 5735 5733 5731 5729 5725 5722 5719 5716 5712 5708 5705 5700 5695 5691 5687 5683 5679 5675 5671 5668 5664 5661 5657 5655 5653
5717 5720 5737 5736 5736 5732 5726 5726 5732 5717 5716 5712 5722 5728 5737 5737 5734 5733 5731 5729 5726 5725 5724 5721 5718 5714 5712 5708 5704 5701 5696 5690 5686 5682 5677 5673 5669 5666 5663 5660 5657 5654 5651 5648
5714 5705 5723 5730 5730 5730 5727 5724 5717 5708 5694 5694 5710 5719 5722 5723 5723 5725 5724 5723 5721 5720 5719 5716 5712 5709 5706 5703 5699 5696 5692 5686 5681 5677 5673 5670 5666 5662 5660 5657 5653 5649 5645 5643
5708 5696 5707 5715 5711 5711 5712 5711 5707 5709 5705 5690 5691 5707 5725 5720 5720 5718 5720 5720 5717 5716 5714 5710 5707 5703 5700 5698 5694 5690 5685 5681 5677 5673 5669 5665 5662 5659 5656 5652 5649 5645 5642 5640
5696 5691 5690 5701 5713 5715 5710 5705 5700 5686 5689 5694 5691 5701 5724 5721 5719 5716 5715 5714 5712 5710 5708 5706 5702 5698 5695 5691 5688 5685 5681 5677 5673 5669 5665 5661 5659 5656 5652 5649 5645 5642 5639 5637
5680 5674 5672 5685 5695 5700 5697 5698 5696 5693 5689 5685 5681 5695 5719 5717 5713 5711 5709 5707 5704 5702 5700 5698 5695 5692 5690 5686 5683 5680 5676 5673 5670 5667 5662 5658 5655 5652 5648 5645 5642 5640 5637 5634
5669 5667 5665 5664 5675 5685 5683 5686 5688 5683 5678 5680 5686 5695 5706 5706 5705 5704 5703 5701 5699 5695 5693 5691 5689 5686 5684 5682 5679 5676 5672 5669 5666 5663 5659 5655 5651 5648 5645 5643 5640 5637 5634 5631
5661 5660 5666 5672 5678 5678 5677 5679 5682 5678 5680 5676 5684 5691 5696 5701 5701 5700 5699 5697 5694 5690 5687 5685 5683 5681 5680 5678 5675 5672 5669 5666 5663 5659 5655 5652 5649 5645 5642 5639 5637 5634 5632 5630
5651 5649 5655 5661 5672 5672 5671 5677 5678 5677 5680 5682 5684 5686 5698 5700 5699 5696 5695 5692 5689 5686 5684 5682 5679 5677 5675 5673 5671 5668 5665 5662 5659 5655 5652 5649 5646 5643 5640 5637 5635 5632 5630 5628
5644 5641 5643 5653 5666 5665 5662 5675 5675 5674 5679 5680 5676 5681 5688 5690 5690 5691 5691 5689 5686 5684 5681 5679 5675 5673 5671 5670 5668 5665 5662 5659 5656 5652 5649 5647 5644 5641 5638 5636 5634 5631 5628 5626
5635 5635 5639 5646 5650 5643 5667 5680 5677 5672 5674 5678 5677 5679 5681 5683 5688 5691 5690 5686 5683 5681 5678 5676 5674 5671 5669 5667 5664 5662 5659 5657 5654 5650 5648 5645 5642 5639 5636 5634 5631 5629 5626 5623
5638 5630 5632 5638 5643 5653 5665 5669 5666 5662 5664 5669 5669 5671 5675 5680 5685 5687 5687 5683 5681 5679 5676 5674 5672 5669 5666 5663 5661 5659 5656 5654 5652 5649 5646 5643 5640 5637 5634 5631 5629 5627 5624 5622
5637 5629 5625 5631 5632 5639 5653 5662 5668 5665 5658 5663 5664 5664 5667 5670 5672 5678 5681 5679 5677 5676 5673 5670 5669 5665 5662 5660 5658 5655 5653 5651 5649 5647 5644 5641 5638 5635 5632 5629 5626 5625 5622 5620
5629 5627 5625 5629 5632 5645 5650 5656 5660 5648 5645 5653 5657 5659 5661 5662 5665 5671 5674 5674 5673 5672 5670 5668 5665 5662 5659 5657 5655 5652 5651 5648 5647 5646 5643 5639 5636 5633 5631 5627 5625 5622 5621 5619
5626 5626 5626 5628 5629 5636 5646 5646 5639 5637 5644 5648 5652 5655 5657 5660 5666 5669 5670 5670 5670 5668 5666 5664 5661 5658 5656 5654 5652 5650 5648 5647 5645 5643 5640 5637 5634 5633 5631 5626 5623 5621 5619 5618
5624 5624 5624 5623 5629 5636 5640 5637 5638 5640 5642 5646 5649 5653 5655 5658 5662 5665 5666 5666 5666 5664 5663 5661 5658 5655 5653 5652 5651 5649 5647 5646 5643 5640 5638 5636 5633 5631 5629 5626 5623 5621 5619 5618
5624 5623 5618 5620 5631 5635 5637 5638 5639 5641 5642 5646 5649 5652 5655 5657 5660 5661 5662 5662 5662 5661 5659 5658 5656 5653 5651 5650 5649 5647 5645 5644 5641 5639 5636 5634 5632 5630 5627 5625 5624 5621 5619 5616
5613 5614 5614 5618 5626 5630 5635 5636 5637 5640 5642 5645 5649 5653 5656 5657 5659 5659 5659 5659 5659 5658 5656 5655 5652 5651 5649 5648 5646 5645 5643 5641 5638 5636 5634 5633 5631 5629 5625 5624 5621 5619 5615 5612
5614 5612 5611 5617 5624 5623 5629 5634 5637 5637 5640 5643 5647 5651 5655 5656 5657 5658 5658 5658 5658 5656 5654 5652 5650 5649 5648 5646 5645 5643 5641 5639 5636 5634 5632 5632 5630 5628 5626 5624 5620 5614 5610 5605